Location: Casteau
(50.5142°N, 4.0161°E)
Time: 08:42:10
(UTC+00:00)

Explorer 7 - Visible Passes

Search period start: 31 July 2021 00:00
Search period end: 10 August 2021 00:00
Orbit: 484 x 676 km, 50.3° (Epoch: 30 July)

Date Brightness Start Highest point End Pass type
(mag) Time Alt. Az. Time Alt. Az. Time Alt. Az.
05 Aug 9.1 02:16:39 10° SSE 02:17:31 11° SE 02:18:22 10° ESE visible
06 Aug 8.6 02:20:23 14° SSE 02:21:32 16° SE 02:23:56 10° E visible
07 Aug 8.1 02:24:26 20° S 02:25:37 23° SE 02:28:41 10° E visible
08 Aug 7.6 02:28:27 25° S 02:29:46 32° SSE 02:33:11 10° E visible
09 Aug 7.1 02:32:27 28° SSW 02:33:56 43° SSE 02:37:36 10° E visible
